| time (UTC) | temp C | wind direction | speed KPH | gust KPH | rain 1hr cm | rain 24hr cm | rain mn cm | humidity % | barometer mb |
| 20260906234547 | 33 | 130 | 6.4 | 14.5 | 0.00 | 0.00 | 0.00 | 50 | 1009.0 |
| 20260906233045 | 34 | 161 | 3.2 | 9.7 | 0.00 | 0.00 | 0.00 | 48 | 1008.9 |
| 20260906231547 | 35 | 148 | 6.4 | 14.5 | 0.00 | 0.00 | 0.00 | 47 | 1008.9 |
| 20260906230045 | 35 | 144 | 6.4 | 14.5 | 0.00 | 0.00 | 0.00 | 46 | 1009.0 |
| 20260906224542 | 36 | 103 | 6.4 | 12.9 | 0.00 | 0.00 | 0.00 | 44 | 1009.1 |
| 20260906223041 | 36 | 292 | 1.6 | 8.0 | 0.00 | 0.00 | 0.00 | 41 | 1009.0 |
| 20260906221538 | 36 | 186 | 3.2 | 11.3 | 0.00 | 0.00 | 0.00 | 43 | 1009.2 |
| 20260906220036 | 36 | 217 | 3.2 | 9.7 | 0.00 | 0.00 | 0.00 | 41 | 1009.4 |
| 20260906214535 | 36 | 151 | 3.2 | 9.7 | 0.00 | 0.00 | 0.00 | 42 | 1009.4 |
| 20260906213031 | 35 | 296 | 1.6 | 9.7 | 0.00 | 0.00 | 0.00 | 45 | 1009.6 |
| 20260906211528 | 35 | 168 | 3.2 | 6.4 | 0.00 | 0.00 | 0.00 | 45 | 1009.8 |
| 20260906210028 | 35 | 109 | 1.6 | 9.7 | 0.00 | 0.00 | 0.00 | 46 | 1010.1 |
| 20260906204526 | 35 | 142 | 4.8 | 12.9 | 0.00 | 0.00 | 0.00 | 46 | 1010.2 |
| 20260906203026 | 34 | 123 | 0.0 | 6.4 | 0.00 | 0.00 | 0.00 | 47 | 1010.3 |
| 20260906201525 | 34 | 131 | 0.0 | 8.0 | 0.00 | 0.00 | 0.00 | 47 | 1010.4 |
| 20260906200025 | 35 | 66 | 4.8 | 11.3 | 0.00 | 0.00 | 0.00 | 47 | 1010.6 |
| 20260906194523 | 35 | 77 | 4.8 | 11.3 | 0.00 | 0.00 | 0.00 | 47 | 1010.7 |
| 20260906193023 | 35 | 111 | 1.6 | 9.7 | 0.00 | 0.00 | 0.00 | 48 | 1010.9 |
| 20260906191522 | 35 | 283 | 1.6 | 9.7 | 0.00 | 0.00 | 0.00 | 49 | 1011.1 |
| 20260906190021 | 35 | 77 | 1.6 | 14.5 | 0.00 | 0.00 | 0.00 | 45 | 1011.3 |
| 20260906184521 | 35 | 279 | 4.8 | 17.7 | 0.00 | 0.00 | 0.00 | 45 | 1011.5 |
| 20260906183015 | 34 | 107 | 1.6 | 14.5 | 0.00 | 0.00 | 0.00 | 48 | 1011.5 |
| 20260906181512 | 33 | 207 | 3.2 | 8.0 | 0.00 | 0.00 | 0.00 | 50 | 1011.7 |
| 20260906180011 | 33 | 173 | 4.8 | 12.9 | 0.00 | 0.00 | 0.00 | 55 | 1012.0 |
| 20260906174510 | 33 | 200 | 3.2 | 11.3 | 0.00 | 0.00 | 0.00 | 58 | 1012.3 |
| 20260906173005 | 33 | 134 | 1.6 | 12.9 | 0.00 | 0.00 | 0.00 | 60 | 1012.6 |
| 20260906171502 | 32 | 132 | 6.4 | 16.1 | 0.00 | 0.00 | 0.00 | 61 | 1012.9 |
| 20260906170106 | 32 | 176 | 3.2 | 12.9 | 0.00 | 0.00 | 0.00 | 64 | 1013.1 |
| 20260906164555 | 31 | 69 | 1.6 | 4.8 | 0.00 | 0.00 | 0.00 | 67 | 1013.2 |
| 20260906163051 | 30 | 161 | 3.2 | 6.4 | 0.00 | 0.00 | 0.00 | 69 | 1013.2 |
| 20260906161556 | 30 | 168 | 1.6 | 8.0 | 0.00 | 0.00 | 0.00 | 69 | 1013.2 |
| 20260906160050 | 30 | 115 | 4.8 | 9.7 | 0.00 | 0.00 | 0.00 | 69 | 1013.2 |
| 20260906154552 | 30 | 130 | 1.6 | 8.0 | 0.00 | 0.00 | 0.00 | 70 | 1013.0 |
| 20260906153051 | 29 | 120 | 1.6 | 11.3 | 0.00 | 0.00 | 0.00 | 71 | 1012.9 |
| 20260906151539 | 28 | 130 | 0.0 | 6.4 | 0.00 | 0.00 | 0.00 | 74 | 1012.7 |
| 20260906150052 | 28 | 104 | 0.0 | 3.2 | 0.00 | 0.00 | 0.00 | 75 | 1012.6 |
| 20260906144535 | 27 | 175 | 0.0 | 4.8 | 0.00 | 0.00 | 0.00 | 77 | 1012.6 |
| 20260906143034 | 27 | 128 | 1.6 | 4.8 | 0.00 | 0.00 | 0.00 | 80 | 1012.5 |
| 20260906141532 | 27 | 108 | 1.6 | 6.4 | 0.00 | 0.00 | 0.00 | 81 | 1012.5 |
| 20260906140036 | 26 | 123 | 0.0 | 0.0 | 0.00 | 0.00 | 0.00 | 83 | 1012.4 |
| 20260906134531 | 26 | 134 | 0.0 | 1.6 | 0.00 | 0.00 | 0.00 | 85 | 1012.3 |
| 20260906133029 | 25 | 169 | 0.0 | 0.0 | 0.00 | 0.00 | 0.00 | 86 | 1012.2 |
| 20260906131528 | 25 | 169 | 0.0 | 0.0 | 0.00 | 0.00 | 0.00 | 87 | 1011.9 |
| 20260906130038 | 25 | 169 | 0.0 | 0.0 | 0.00 | 0.00 | 0.00 | 88 | 1011.8 |
| 20260906124523 | 24 | 169 | 0.0 | 0.0 | 0.00 | 0.00 | 0.00 | 88 | 1011.5 |
| 20260906123034 | 24 | 169 | 0.0 | 0.0 | 0.00 | 0.00 | 0.00 | 87 | 1011.4 |
| 20260906121520 | 24 | 169 | 0.0 | 0.0 | 0.00 | 0.00 | 0.00 | 85 | 1011.1 |
| 20260906120018 | 24 | 169 | 0.0 | 0.0 | 0.00 | 0.00 | 0.00 | 85 | 1010.8 |
| 20260906114517 | 25 | 169 | 0.0 | 0.0 | 0.00 | 0.00 | 0.00 | 84 | 1010.4 |
| 20260906113015 | 25 | 169 | 0.0 | 0.0 | 0.00 | 0.00 | 0.00 | 84 | 1010.5 |
| 20260906111512 | 25 | 169 | 0.0 | 0.0 | 0.00 | 0.00 | 0.00 | 82 | 1010.4 |
| 20260906110010 | 25 | 169 | 0.0 | 0.0 | 0.00 | 0.00 | 0.00 | 81 | 1010.3 |
| 20260906104518 | 26 | 169 | 0.0 | 0.0 | 0.00 | 0.00 | 0.00 | 80 | 1010.3 |
| 20260906103020 | 26 | 169 | 0.0 | 0.0 | 0.00 | 0.00 | 0.00 | 80 | 1010.3 |
| 20260906101505 | 26 | 169 | 0.0 | 0.0 | 0.00 | 0.00 | 0.00 | 79 | 1010.1 |
| 20260906100009 | 26 | 169 | 0.0 | 0.0 | 0.00 | 0.00 | 0.00 | 78 | 1010.0 |
| 20260906094503 | 26 | 185 | 0.0 | 0.0 | 0.00 | 0.00 | 0.00 | 78 | 1010.0 |
| 20260906093100 | 26 | 182 | 0.0 | 0.0 | 0.00 | 0.00 | 0.00 | 77 | 1010.0 |
| 20260906091559 | 27 | 208 | 0.0 | 4.8 | 0.00 | 0.00 | 0.00 | 77 | 1009.9 |
| 20260906090058 | 27 | 192 | 0.0 | 4.8 | 0.00 | 0.00 | 0.00 | 77 | 1010.0 |
| 20260906084600 | 27 | 186 | 0.0 | 6.4 | 0.00 | 0.00 | 0.00 | 76 | 1010.0 |
| 20260906083055 | 27 | 231 | 0.0 | 8.0 | 0.00 | 0.00 | 0.00 | 76 | 1010.0 |
| 20260906081557 | 27 | 166 | 0.0 | 6.4 | 0.00 | 0.00 | 0.00 | 77 | 1010.0 |
| 20260906080056 | 27 | 139 | 1.6 | 8.0 | 0.00 | 0.00 | 0.00 | 76 | 1010.1 |
| 20260906074553 | 27 | 158 | 0.0 | 9.7 | 0.00 | 0.00 | 0.00 | 77 | 1010.2 |
| 20260906073148 | 27 | 155 | 1.6 | 8.0 | 0.00 | 0.00 | 0.00 | 77 | 1010.5 |
| 20260906071547 | 27 | 234 | 0.0 | 4.8 | 0.00 | 0.00 | 0.00 | 77 | 1010.5 |
| 20260906070045 | 27 | 166 | 1.6 | 8.0 | 0.00 | 0.00 | 0.00 | 76 | 1010.8 |
| 20260906064543 | 27 | 160 | 1.6 | 3.2 | 0.00 | 0.00 | 0.00 | 76 | 1010.9 |
| 20260906063046 | 27 | 156 | 0.0 | 6.4 | 0.00 | 0.00 | 0.00 | 75 | 1011.0 |
| 20260906061542 | 27 | 139 | 0.0 | 4.8 | 0.00 | 0.00 | 0.00 | 75 | 1010.8 |
| 20260906060040 | 27 | 142 | 1.6 | 4.8 | 0.00 | 0.00 | 0.00 | 75 | 1010.9 |
| 20260906054558 | 27 | 140 | 0.0 | 3.2 | 0.00 | 0.00 | 0.00 | 74 | 1011.1 |
| 20260906053037 | 27 | 129 | 0.0 | 8.0 | 0.00 | 0.00 | 0.00 | 73 | 1011.0 |
| 20260906051537 | 28 | 115 | 0.0 | 6.4 | 0.00 | 0.00 | 0.00 | 73 | 1011.1 |
| 20260906050039 | 28 | 144 | 1.6 | 8.0 | 0.00 | 0.00 | 0.00 | 73 | 1011.2 |
| 20260906044536 | 28 | 119 | 1.6 | 6.4 | 0.00 | 0.00 | 0.00 | 72 | 1011.4 |
| 20260906043033 | 28 | 121 | 3.2 | 12.9 | 0.00 | 0.00 | 0.00 | 71 | 1011.3 |
| 20260906041532 | 28 | 106 | 3.2 | 11.3 | 0.00 | 0.00 | 0.00 | 70 | 1011.2 |
| 20260906040044 | 28 | 110 | 1.6 | 8.0 | 0.00 | 0.00 | 0.00 | 68 | 1011.1 |
| 20260906034545 | 28 | 155 | 4.8 | 16.1 | 0.00 | 0.00 | 0.00 | 67 | 1011.1 |
| 20260906033031 | 29 | 95 | 6.4 | 12.9 | 0.00 | 0.00 | 0.00 | 66 | 1011.1 |
| 20260906031558 | 29 | 75 | 3.2 | 11.3 | 0.00 | 0.00 | 0.00 | 65 | 1011.0 |
| 20260906030029 | 30 | 101 | 3.2 | 9.7 | 0.00 | 0.00 | 0.00 | 62 | 1010.8 |
| 20260906024550 | 30 | 78 | 3.2 | 9.7 | 0.00 | 0.00 | 0.00 | 59 | 1010.5 |
| 20260906023027 | 30 | 116 | 3.2 | 14.5 | 0.00 | 0.00 | 0.00 | 57 | 1010.1 |
| 20260906021526 | 31 | 44 | 4.8 | 12.9 | 0.00 | 0.00 | 0.00 | 56 | 1009.8 |
| 20260906020028 | 31 | 148 | 9.7 | 22.5 | 0.00 | 0.00 | 0.00 | 55 | 1009.5 |
| 20260906014526 | 31 | 130 | 3.2 | 12.9 | 0.00 | 0.00 | 0.00 | 55 | 1009.2 |
| 20260906013024 | 32 | 86 | 6.4 | 16.1 | 0.00 | 0.00 | 0.00 | 53 | 1009.2 |
| 20260906011524 | 32 | 77 | 4.8 | 16.1 | 0.00 | 0.00 | 0.00 | 53 | 1008.9 |
| 20260906010040 | 32 | 103 | 4.8 | 12.9 | 0.00 | 0.00 | 0.00 | 52 | 1008.9 |
| 20260906004523 | 33 | 107 | 4.8 | 14.5 | 0.00 | 0.00 | 0.00 | 51 | 1008.9 |
| 20260906003022 | 33 | 115 | 6.4 | 16.1 | 0.00 | 0.00 | 0.00 | 50 | 1008.9 |
| 20260906001529 | 33 | 40 | 4.8 | 14.5 | 0.00 | 0.00 | 0.00 | 49 | 1008.8 |
| 20260906000022 | 34 | 140 | 4.8 | 16.1 | 0.00 | 0.00 | 0.00 | 47 | 1008.8 |